(146502) = 2001 SF41 = 2003 AB48

Discovered at Socorro on 2001-09-16 by LINEAR.

Orbit

Orbit type: Main Belt

Note: WebGL enabled browser required.

epoch2024-03-31.0
epoch JD2460400.5
perihelion date2024-02-23.09024
perihelion JD2460363.59024
argument of perihelion (°)197.85033
ascending node (°)334.35627
inclination (°)5.40613
eccentricity0.0736122
perihelion distance (AU)2.3697176
Tisserand w.r.t. Jupiter3.4
ΔV w.r.t. Earth (km/sec)9.8
semimajor axis (AU)2.5580191
mean anomaly (°)8.89179
mean daily motion (°/day)0.24090630
aphelion distance (AU)2.746
period (years)4.09
P-vector [x]-0.99017341
P-vector [y]0.13702725
P-vector [z]0.02793129
Q-vector [x]-0.13376892
Q-vector [y]-0.86983331
Q-vector [z]-0.47486407
absolute magnitude15.93
phase slope0.15
uncertainty0
referenceMPEC 2024-F74
observations used733
oppositions20
arc length (days)10694
first opposition used1994
last opposition used2024
residual rms (arc-secs)0.72
perturbers coarse indicatorM-v
perturbers precise indicator003Ek
first observation date used1994-12-10.0
last observation date used2024-03-21.0
computer nameMPCLINUX
JD of orbit computation2456877.836357
perihelion JD uncertainty (days)2.1464E-04
argument of perihelion uncertainty (°)8.8873E-05
ascending node uncertainty (°)7.4261E-05
inclination uncertainty (°)9.2549E-06
eccentricity uncertainty 9.4853E-08
perihelion distance uncertainty (AU)2.3412E-07
Minimum Orbit Intersection Distances (in AU)
for orbit epoch: 2460400.5, reference: E2024-G95
Mercury1.96919
Venus1.65404
Earth1.37631
Mars0.71231
Jupiter2.22545
Saturn6.5081
Uranus16.0686
Neptune27.1238

Observations

756 total observations over interval: 1994 12 10.41345 – 2024 03 21.442833
These data are available for download (format description).

Date (UT) J2000 RA J2000 Dec Magn Location Ref
1994 12 10.41345 09 31 09.99 +19 15 56.2 20.1 V 691 – Steward Observatory, Kitt Peak-Spacewatch MPS 82662
1994 12 10.44508 09 31 10.43 +19 15 54.4   691 – Steward Observatory, Kitt Peak-Spacewatch MPS 82662
1994 12 10.47642 09 31 10.90 +19 15 51.6   691 – Steward Observatory, Kitt Peak-Spacewatch MPS 82662
1999 01 10.30207 08 22 11.40 +25 03 30.0 18.8 R 699 – Lowell Observatory-LONEOS MPS 82662
1999 01 10.32758 08 22 09.79 +25 03 32.1   699 – Lowell Observatory-LONEOS MPS 82662
1999 01 10.35310 08 22 08.16 +25 03 36.1   699 – Lowell Observatory-LONEOS MPS 82662
2001 09 11.28579 00 00 26.82 +03 33 19.5 19.0 R 699 – Lowell Observatory-LONEOS MPS 38132
2001 09 11.30924 00 00 25.50 +03 33 18.0   699 – Lowell Observatory-LONEOS MPS 38132
2001 09 11.33270 00 00 24.27 +03 33 12.7   699 – Lowell Observatory-LONEOS MPS 38132
2001 09 11.35624 00 00 23.03 +03 33 07.7   699 – Lowell Observatory-LONEOS MPS 38132
2001 09 12.30635 23 59 33.46 +03 29 49.9 20.2 V 333 – Desert Eagle Observatory MPS 38132
2001 09 12.34471 23 59 31.33 +03 29 40.8 20.4 V 333 – Desert Eagle Observatory MPS 38132
2001 09 15.25949 23 56 56.23 +03 19 04.4 19.8   644 – Palomar Mountain/NEAT MPS 38132
2001 09 15.28048 23 56 55.07 +03 19 00.1 19.4   644 – Palomar Mountain/NEAT MPS 38132
2001 09 15.30162 23 56 53.91 +03 18 55.4 19.5   644 – Palomar Mountain/NEAT MPS 38132
2001 09 16.39090 23 55 54.76 +03 14 46.1 19.9   704 – Lincoln Laboratory ETS, New Mexico MPS 36533
2001 09 16.40526 23 55 53.92 +03 14 42.3 19.9   704 – Lincoln Laboratory ETS, New Mexico MPS 36533
2001 09 16.41978 23 55 53.12 +03 14 39.0 19.6   704 – Lincoln Laboratory ETS, New Mexico MPS 36533
2001 09 20.25416 23 52 24.28 +02 59 31.7 18.6   704 – Lincoln Laboratory ETS, New Mexico MPS 36533
2001 09 20.26832 23 52 23.48 +02 59 28.5 18.6   704 – Lincoln Laboratory ETS, New Mexico MPS 36533
2001 09 20.28247 23 52 22.67 +02 59 25.3 19.2   704 – Lincoln Laboratory ETS, New Mexico MPS 36533
2001 09 20.29661 23 52 21.86 +02 59 21.5 19.3   704 – Lincoln Laboratory ETS, New Mexico MPS 36533
2001 09 20.31075 23 52 21.06 +02 59 18.2 19.6   704 – Lincoln Laboratory ETS, New Mexico MPS 36533
2001 09 21.24603 23 51 29.97 +02 55 30.3 18.7   704 – Lincoln Laboratory ETS, New Mexico MPS 36533
2001 09 21.26105 23 51 29.15 +02 55 26.7 19.5   704 – Lincoln Laboratory ETS, New Mexico MPS 36533
2001 09 21.26118 23 51 29.29 +02 55 25.3 19.4   704 – Lincoln Laboratory ETS, New Mexico MPS 36533
2001 09 21.27551 23 51 28.33 +02 55 23.0 19.6   704 – Lincoln Laboratory ETS, New Mexico MPS 36533
2001 09 21.27563 23 51 28.31 +02 55 23.0 19.0   704 – Lincoln Laboratory ETS, New Mexico MPS 36533
2001 09 21.29057 23 51 27.49 +02 55 19.3 19.6   704 – Lincoln Laboratory ETS, New Mexico MPS 36533
2001 09 21.29069 23 51 27.44 +02 55 20.4 19.3   704 – Lincoln Laboratory ETS, New Mexico MPS 36533
2001 09 21.30513 23 51 26.70 +02 55 14.9 19.6   704 – Lincoln Laboratory ETS, New Mexico MPS 36533
2001 09 21.30524 23 51 26.64 +02 55 15.2 19.2   704 – Lincoln Laboratory ETS, New Mexico MPS 36533
2001 09 22.25785 23 50 34.63 +02 51 21.4 18.3   704 – Lincoln Laboratory ETS, New Mexico MPS 36533
2001 09 22.27202 23 50 33.85 +02 51 17.9 19.1   704 – Lincoln Laboratory ETS, New Mexico MPS 36533
2001 09 22.28619 23 50 33.02 +02 51 14.3 19.1   704 – Lincoln Laboratory ETS, New Mexico MPS 36533
2001 09 22.30038 23 50 32.21 +02 51 10.9 19.0   704 – Lincoln Laboratory ETS, New Mexico MPS 36533
2001 09 23.25457 23 49 40.22 +02 47 14.7 18.6   704 – Lincoln Laboratory ETS, New Mexico MPS 43838
2001 09 23.26872 23 49 39.43 +02 47 10.8 18.9   704 – Lincoln Laboratory ETS, New Mexico MPS 43838
2001 09 23.28287 23 49 38.67 +02 47 07.9 18.9   704 – Lincoln Laboratory ETS, New Mexico MPS 43838
2001 09 23.29704 23 49 37.86 +02 47 04.4 18.9   704 – Lincoln Laboratory ETS, New Mexico MPS 43838
2001 09 23.31120 23 49 37.06 +02 47 00.9 19.6   704 – Lincoln Laboratory ETS, New Mexico MPS 43838
2001 09 24.24948 23 48 45.94 +02 43 06.1 19.5   704 – Lincoln Laboratory ETS, New Mexico MPS 40480
2001 09 24.24959 23 48 45.94 +02 43 06.1 19.0   704 – Lincoln Laboratory ETS, New Mexico MPS 40480
2001 09 24.25020 23 48 45.86 +02 43 06.4 19.4   704 – Lincoln Laboratory ETS, New Mexico MPS 40480
2001 09 24.26432 23 48 45.14 +02 43 03.4 19.9   704 – Lincoln Laboratory ETS, New Mexico MPS 40480
2001 09 24.26443 23 48 45.17 +02 43 02.7 19.4   704 – Lincoln Laboratory ETS, New Mexico MPS 40480
2001 09 24.26503 23 48 45.02 +02 43 02.9 19.7   704 – Lincoln Laboratory ETS, New Mexico MPS 40480
2001 09 24.27914 23 48 44.33 +02 42 59.3 19.7   704 – Lincoln Laboratory ETS, New Mexico MPS 40480
2001 09 24.27985 23 48 44.21 +02 42 58.4 19.5   704 – Lincoln Laboratory ETS, New Mexico MPS 40480
2001 09 24.29407 23 48 43.53 +02 42 55.5 19.7   704 – Lincoln Laboratory ETS, New Mexico MPS 40480
2001 09 24.30892 23 48 42.61 +02 42 50.7 20.3   704 – Lincoln Laboratory ETS, New Mexico MPS 40480
2001 09 24.30903 23 48 42.48 +02 42 50.5 19.9   704 – Lincoln Laboratory ETS, New Mexico MPS 40480
2001 09 24.33219 23 48 41.27 +02 42 46.0 19.5   704 – Lincoln Laboratory ETS, New Mexico MPS 40480
2001 09 24.34680 23 48 40.49 +02 42 42.4 19.9   704 – Lincoln Laboratory ETS, New Mexico MPS 40480
2001 09 24.36141 23 48 39.64 +02 42 37.9 20.0   704 – Lincoln Laboratory ETS, New Mexico MPS 40480
2001 09 24.39066 23 48 37.99 +02 42 30.6 19.7   704 – Lincoln Laboratory ETS, New Mexico MPS 40480
2001 09 25.25458 23 47 51.39 +02 38 55.3 19.4   704 – Lincoln Laboratory ETS, New Mexico MPS 49454
2001 09 25.25550 23 47 51.40 +02 38 54.9 19.1   704 – Lincoln Laboratory ETS, New Mexico MPS 49454
2001 09 25.26956 23 47 50.54 +02 38 50.6 19.9   704 – Lincoln Laboratory ETS, New Mexico MPS 49454
2001 09 25.27110 23 47 50.53 +02 38 50.4 19.8   704 – Lincoln Laboratory ETS, New Mexico MPS 49454
2001 09 25.28459 23 47 49.71 +02 38 47.6 19.7   704 – Lincoln Laboratory ETS, New Mexico MPS 49454
2001 09 25.28616 23 47 49.72 +02 38 46.8 19.9   704 – Lincoln Laboratory ETS, New Mexico MPS 49454
2001 09 25.29960 23 47 48.88 +02 38 43.6 19.8   704 – Lincoln Laboratory ETS, New Mexico MPS 49454
2001 09 25.30352 23 47 48.76 +02 38 41.9 20.0   704 – Lincoln Laboratory ETS, New Mexico MPS 49454
2001 09 25.31458 23 47 48.02 +02 38 39.2 20.1   704 – Lincoln Laboratory ETS, New Mexico MPS 49454
2001 09 25.32027 23 47 47.80 +02 38 38.1 19.4   704 – Lincoln Laboratory ETS, New Mexico MPS 49454
2001 09 26.26371 23 46 56.91 +02 34 41.1 19.4   704 – Lincoln Laboratory ETS, New Mexico MPS 49454
2001 09 26.29414 23 46 55.28 +02 34 33.8 19.9   704 – Lincoln Laboratory ETS, New Mexico MPS 49454
2001 09 26.30934 23 46 54.37 +02 34 29.5 20.0   704 – Lincoln Laboratory ETS, New Mexico MPS 49454
2001 10 11.23842 23 34 39.82 +01 34 16.6 19.9   644 – Palomar Mountain/NEAT MPS 38132
2001 10 11.25960 23 34 38.86 +01 34 12.4 20.0   644 – Palomar Mountain/NEAT MPS 38132
2001 10 11.28081 23 34 37.93 +01 34 07.5 19.9   644 – Palomar Mountain/NEAT MPS 38132
2001 10 21.17621 23 28 34.83 +01 02 04.7 19.8   704 – Lincoln Laboratory ETS, New Mexico MPS 40480
2001 10 21.19258 23 28 34.30 +01 02 01.9 20.1   704 – Lincoln Laboratory ETS, New Mexico MPS 40480
2001 10 21.20894 23 28 33.84 +01 02 00.5 20.2   704 – Lincoln Laboratory ETS, New Mexico MPS 40480
2001 10 21.22533 23 28 33.22 +01 01 57.6 20.1   704 – Lincoln Laboratory ETS, New Mexico MPS 40480
2003 01 05.30348 07 23 20.61 +28 46 58.8 18.6   704 – Lincoln Laboratory ETS, New Mexico MPS 71790
2003 01 05.31921 07 23 19.50 +28 46 59.6 18.9   704 – Lincoln Laboratory ETS, New Mexico MPS 71790
2003 01 05.33477 07 23 18.44 +28 47 01.0 19.1   704 – Lincoln Laboratory ETS, New Mexico MPS 71790
2003 01 05.35018 07 23 17.38 +28 47 01.7 19.0   704 – Lincoln Laboratory ETS, New Mexico MPS 71790
2003 01 05.36574 07 23 16.29 +28 47 02.2 19.0   704 – Lincoln Laboratory ETS, New Mexico MPS 71790
2003 01 09.18204 07 18 58.95 +28 49 11.1 18.5   704 – Lincoln Laboratory ETS, New Mexico MPS 71790
2003 01 09.19710 07 18 57.92 +28 49 11.0 19.0   704 – Lincoln Laboratory ETS, New Mexico MPS 71790
2003 01 09.22799 07 18 55.75 +28 49 11.4 19.2   704 – Lincoln Laboratory ETS, New Mexico MPS 71790
